Home   Weather   Cleveland   Past weeks

Flag for USA Past Weather in Cleveland, Ohio, USA — Yesterday and Last 2 Weeks

Now
61 °F

Overcast.


Feels Like: 61 °F
Forecast: 62 / 70 °F
Wind: 7 mph from East

Location: Cleveland-Hopkins International Airport

Current Time: Sep 30, 2016 at 11:17:14 PM

Latest Report: Sep 30, 2016 at 10:51 PM


Visibility: 10 mi

Pressure: 30.09 "Hg

Humidity: 81%

Dew Point: 55 °F

Location of ClevelandLocation

Past Weather in Cleveland — Graph

°F

Cleveland Temperature Yesterday

Maximum temperature yesterday: 68 °F (at 11:51 AM)
Minimum temperature yesterday: 58 °F (at 1:51 AM)
Average temperature yesterday: 62 °F

High & Low Weather Summary for the Past Weeks

 TemperatureHumidityPressure
High89 °F (Sep 23, 3:04 PM)90% (Sep 17, 4:51 AM)30.24 "Hg (Sep 17, 4:51 AM)
Low52 °F (Sep 27, 5:51 AM)24% (Sep 27, 1:51 PM)29.78 "Hg (Sep 27, 4:51 PM)
Average68 °F67%30.07 "Hg
* Reported Sep 15 9:51 PM — Sep 30 9:51 PM, Cleveland, Weather by CustomWeather, © 2016

Note: Actual official high and low records may vary slightly from our data, if they occured in-between our weather recording intervals... More about our weather records

Advertising

Cleveland Weather History for the Previous 24 Hours

Scroll right to see more
 ConditionsComfort  
Time TempWeatherWind HumidityBarometerVisibility
9:51 PM
Fri, Sep 30
61 °FOvercast.8 mph81%30.11 "Hg10 mi
8:51 PM62 °FOvercast.12 mph78%30.11 "Hg10 mi
7:51 PM62 °FOvercast.10 mph80%30.10 "Hg10 mi
6:51 PM62 °FMore clouds than sun.12 mph83%30.09 "Hg10 mi
5:51 PM63 °FMostly cloudy.8 mph84%30.08 "Hg10 mi
4:51 PM62 °FLight rain. Overcast.12 mph83%30.07 "Hg4 mi
3:51 PM63 °FLight rain. Overcast.12 mph84%30.08 "Hg8 mi
2:51 PM63 °FThunderstorms. Overcast.6 mph81%30.12 "Hg3 mi
1:51 PM64 °FLight rain. Overcast.5 mph78%30.12 "Hg6 mi
12:51 PM64 °FOvercast.7 mph75%30.13 "Hg10 mi
11:51 AM63 °FLight rain. Overcast.6 mph78%30.14 "Hg10 mi
10:51 AM63 °FLight rain. Overcast.10 mph78%30.14 "Hg10 mi
9:51 AM61 °FPartly sunny.10 mph81%30.14 "Hg10 mi
8:51 AM61 °FMore clouds than sun.15 mph78%30.12 "Hg10 mi
7:51 AM61 °FMore clouds than sun.13 mph81%30.14 "Hg10 mi
6:51 AM61 °FLight rain. Mostly cloudy.14 mph81%30.11 "Hg10 mi
6:01 AM61 °FMostly cloudy.13 mph83%30.14 "Hg10 mi
4:51 AM61 °FLight rain. Mostly cloudy.13 mph83%30.13 "Hg10 mi
3:51 AM61 °FLight rain. Overcast.12 mph83%30.16 "Hg10 mi
2:51 AM61 °FLight rain. Overcast.10 mph83%30.15 "Hg10 mi
1:51 AM61 °FMostly cloudy.12 mph87%30.13 "Hg10 mi
12:51 AM62 °FLight rain. Overcast.12 mph83%30.15 "Hg10 mi
11:51 PM
Thu, Sep 29
62 °FLight rain. Mostly cloudy.12 mph83%30.16 "Hg8 mi
11:02 PM63 °FLight rain. Mostly cloudy.12 mph84%30.19 "Hg7 mi
Weather by CustomWeather, © 2016

See weather overviewHow to use our weather pages